Location: Riverside
(39.1734°N, 77.8561°W)
Time: 10:48:35
(UTC+00:00)

BEESAT 3 - Pass Details

Date: 31 May 2019
Orbit: 484 x 526 km, 64.9° (Epoch: 18 June)

Event Time Altitude Azimuth Distance (km) Brightness Sun altitude
Rises 03:45:25 0° 337° (NNW) 2,663 ? -25.9°
Reaches altitude 10° 03:47:46 10° 346° (NNW) 1,773 ? -26.1°
Enters shadow 03:50:49 32° 33° (NNE) 920 ? -26.3°
